Weather History for Mayo, YT

Change the Weather History Date:

Friday, November 23, 2012

  Actual Average Record
Temperature  
Mean Temperature -7 °F -  
Max Temperature 0 °F 2 °F 50 °F (2005)
Min Temperature -14 °F -16 °F -45 °F (2006)
Degree Days  
Heating Degree Days 72    
Moisture  
Dew Point -14 °F    
Average Humidity 74    
Maximum Humidity 84    
Minimum Humidity 65    
Precipitation  
Precipitation 0.00 in 0.03 in - ()
Sea Level Pressure  
Sea Level Pressure 30.11 in    
Wind  
Wind Speed 3 mph ()    
Max Wind Speed 10 mph    
Max Gust Speed -    
Visibility 20.0 miles    
Events Snow    
Averages and records for this station are not official NWS values.
T = Trace of Precipitation, MM = Missing Value Source: Averaged Metar Reports

Daily Weather History Graph

Daily Weather History Graph

Search for Another Location

Airport:

Trip Planner

Search our weather history database for the weather conditions in past years. The results will help you decide how hot, cold, wet, or windy it might be!

Date:

Astronomy

Nov. 23, 2012 Rise Set
Actual Time 9:54 AM PST 3:45 PM PST
Civil Twilight 8:50 AM PST 4:48 PM PST
Nautical Twilight 7:49 AM PST 5:50 PM PST
Astronomical Twilight 6:52 AM PST 6:46 PM PST
Moon 2:21 PM PST (11/23) 3:54 AM PST (11/23)
Length of Visible Light 7h 57m
Length of Day
5h 51m
Waxing Gibbous, 80% of the Moon is Illuminated
Nov 23
Waxing Gibbous
Nov 28
Full
Dec 6
Last Quarter
Dec 13
New
Dec 19
First Quarter

Hourly Weather History & Observations

Time (PST) Temp. Windchill Dew Point Humidity Pressure Visibility Wind Dir Wind Speed Gust Speed Precip Events Conditions
12:00 AM -11.2 °F -24.8 °F -14.8 °F 84% 30.16 in 20.0 mi ENE 5.8 mph - N/A   Partly Cloudy
1:00 AM -7.6 °F -20.6 °F -14.8 °F 71% 30.11 in 20.0 mi East 5.8 mph - N/A   Mostly Cloudy
2:00 AM -7.6 °F -16.5 °F -14.8 °F 71% 30.09 in 20.0 mi NE 3.5 mph - N/A   Mostly Cloudy
3:00 AM -7.6 °F -22.1 °F -14.8 °F 71% 30.08 in 20.0 mi ENE 6.9 mph - N/A   Overcast
4:00 AM -9.4 °F -18.6 °F -13.0 °F 84% 30.08 in 20.0 mi East 3.5 mph - N/A   Mostly Cloudy
5:00 AM -5.8 °F -19.9 °F -13.0 °F 71% 30.06 in 20.0 mi ENE 6.9 mph - N/A   Mostly Cloudy
6:00 AM -11.2 °F - -16.6 °F 77% 30.06 in 20.0 mi SSW 2.3 mph - N/A   Scattered Clouds
7:00 AM -13.0 °F - -18.4 °F 77% 30.06 in 20.0 mi Calm Calm - N/A   Partly Cloudy
8:00 AM -11.2 °F - -18.4 °F 70% 30.06 in 20.0 mi Calm Calm - N/A   Partly Cloudy
9:00 AM -13.0 °F - -18.4 °F 77% 30.07 in 20.0 mi Calm Calm - N/A   Partly Cloudy
10:00 AM -14.8 °F - -22.0 °F 70% 30.09 in 20.0 mi Calm Calm - N/A   Partly Cloudy
11:00 AM -14.8 °F - -22.0 °F 70% 30.10 in 20.0 mi Calm Calm - N/A   Scattered Clouds
12:00 PM -14.8 °F - -20.2 °F 77% 30.11 in 20.0 mi Calm Calm - N/A   Mostly Cloudy
1:00 PM -11.2 °F - -16.6 °F 77% 30.10 in 20.0 mi Calm Calm - N/A   Mostly Cloudy
2:00 PM -9.4 °F - -18.4 °F 65% 30.11 in 20.0 mi Calm Calm - N/A   Mostly Cloudy
3:00 PM -5.8 °F - -13.0 °F 71% 30.11 in 20.0 mi Calm Calm - N/A   Mostly Cloudy
4:00 PM -5.8 °F - -14.8 °F 65% 30.12 in 20.0 mi Calm Calm - N/A   Mostly Cloudy
5:00 PM -5.8 °F -18.4 °F -11.2 °F 77% 30.13 in 20.0 mi East 5.8 mph - N/A   Overcast
6:00 PM -5.8 °F -18.4 °F -13.0 °F 71% 30.13 in 20.0 mi East 5.8 mph - N/A   Overcast
6:51 PM - - - N/A% - 20.0 mi Calm Calm - N/A   Unknown
7:00 PM -4.0 °F - -9.4 °F 78% 30.14 in 20.0 mi Calm Calm - N/A Snow Light Snow
8:00 PM -2.2 °F -16.8 °F -9.4 °F 71% 30.14 in 20.0 mi ENE 8.1 mph - N/A Snow Light Snow
9:00 PM -2.2 °F -12.5 °F -7.6 °F 78% 30.16 in 20.0 mi NNE 4.6 mph - N/A Snow Light Snow
10:00 PM -0.4 °F -12.0 °F -5.8 °F 78% 30.17 in 20.0 mi NNE 5.8 mph - N/A Snow Light Snow
10:29 PM - - - N/A% - 20.0 mi North 8.1 mph - N/A   Mostly Cloudy
11:00 PM -0.4 °F -16.7 °F -5.8 °F 78% 30.18 in 20.0 mi North 10.4 mph - N/A   Mostly Cloudy
11:41 PM - - - N/A% - 20.0 mi North 6.9 mph - N/A   Unknown